Location: Geroldsau
(48.7259°N, 8.2466°E)
Time: 09:03:51
(UTC+00:00)

Cosmos 1697 Rocket - Pass Details

Date: 20 June 2021
Orbit: 831 x 845 km, 71.0° (Epoch: 02 August)

Event Time Altitude Azimuth Distance (km) Brightness Sun altitude
Rises 02:06:39 0° 335° (NNW) 3,403 6.3 -9.7°
Reaches altitude 10° 02:09:17 10° 343° (NNW) 2,467 5.7 -9.4°
Maximum altitude 02:14:33 38° 51° (NE) 1,261 4.4 -8.9°
Drops below altitude 10° 02:19:48 10° 119° (ESE) 2,462 5.3 -8.3°
Sets 02:22:25 0° 128° (SE) 3,394 5.9 -8.1°
